Погода в Краснополье

Украина / Николаевская область     46°51′48″N   31°14′56″E
темп.,
°C
ветер,
м/с
пор.,
м/с
влажн.,
%
обл.,
%
осадки,
мм/ч
давл.,
гПа
погр.,
м
20 мая, пт
пт2000:00+14сз346197 0.0 102243
03:00+12сз34715 0.0 102249
06:00+11сз46725 0.0 102387
09:00+18сз565245 0.0 1023493
12:00+23сз45335 0.0 10221738
15:00+23юз45345 0.0 10211605
18:00+20ююз794651 0.0 1019561
21:00+16юз61169100 0.0 1019223
21 мая, сб
сб2100:00+15юз3582100 0.0 101894
03:00+16юз46645 0.0 101693
06:00+15зюз46665 0.0 1015106
09:00+21юз444832 0.0 1014376
12:00+24ююз5542100 0.0 1012896
15:00+26юз6841100 0.0 10111505
18:00+26юз474345 0.0 10091599
21:00+21зсз2463100 0.0 1010104
22 мая, вс
вс2200:00+18сз3886100 0.2 1010432
03:00+17с496950 0.2 1010426
06:00+16зсз376963 0.0 1009303
09:00+19зсз795397 0.0 10081083
12:00+22зсз912366 0.0 10072364
15:00+20сз1014444 0.0 10061976
18:00+18сз1015433 0.0 10061992
21:00+13сз6116358 0.0 1007736
23 мая, пн
пн2300:00+13сз596361 0.0 1007844
03:00+12сз5968100 0.0 1007650
06:00+11сз597583 0.0 1007503
09:00+14ссз676790 0.1 10081072
12:00+13ссз6771100 0.7 1008864
15:00+14ссз676070 0.8 10091286
18:00+13с81060100 0.1 10101152
21:00+12с3661100 0.1 1012202
24 мая, вт
вт2400:00+10с477033 0.0 1013131
03:00+8с457933 0.0 101488
06:00+7с36795 0.0 1016115
09:00+15ссв46495 0.0 10161119
12:00+18ссв453286 0.0 10172487
15:00+18св243461 0.0 10172097
18:00+18з133755 0.0 10171616
21:00+12ююз45619 0.0 101967